Location: Minneapolis
(45.0000°N, 93.0000°W)
Time: 10:53:07

Envisat - Pass Details

Date: 14 March 2018
Orbit: 764 x 766 km, 98.2° (Epoch: 20 March)

Event Time Altitude Azimuth Distance (km) Brightness Sun altitude
Rises 20:54:03 0° 176° (S) 3,215 6.0 -17.8°
Reaches altitude 10° 20:56:23 10° 181° (S) 2,293 5.3 -18.2°
Maximum altitude 21:01:21 57° 260° (W) 902 3.6 -19.1°
Drops below altitude 10° 21:06:21 10° 339° (NNW) 2,309 6.0 -19.9°
Sets 21:08:43 0° 343° (NNW) 3,240 6.7 -20.3°
